STARLINK-11143, 59953

Orbit data source: Space-Track

STARLINK-11143, 59953 is a payload satellite owned by SpaceX/Seattle (US) in LEO that was launched on Wed, 05 Jun 2024 UTC via an FALCON 9 launch vehicle from the Air Force Eastern Test Range (AFETR). Payload-class satellites include a variety of spacecraft equipped with specific instruments for various scientific and technological missions. These include communications satellites like Starlink; space stations such as the ISS; scientific satellites like the Hubble; Earth observation satellites from companies like Planet Labs, Umbra, and HawkEye 360; GPS; miniature CubeSats for education and research; and military/defense satellites.

Loading next visibility...
Identifier
59953, 2024-107J
Orbit
LEO
Last TLE update
12 hours ago
Origin
Manufacturer
SpaceX/Seattle
Mission
Operational spacecraft
Bus & Motor
STARLINK V2M, Unknown motor
Mass
730 kg wet, ~700 kg dry
Launch date (UTC)
2024-06-05 (1 year ago)
Launch vehicle
FALCON 9
Launch site
Air Force Eastern Test Range (AFETR)
Object type
Payload
Rocket body
Debris
Shape & HBR
Unknown
Radar Cross Section
Large (>1 m²)

Expand to show TLE details & history

TLE from 12 hours ago
0 STARLINK-11143
1 59953U 24107J   25181.91903490 -.00000226  00000-0  29905-5 0  9998
2 59953  53.1594  52.3203 0001068  83.7349 276.3791 15.69712323 62602
Epoch: 2025-06-30T22:03Z
TLE epoch observation values (Epoch: 2025-06-30T22:03:24.615Z)
Latitude
0.00002°
Longitude
162.24581°
Altitude
360.555 km
Speed
7.694 km/s
True Right ascension
03h 29m 16s
True Declination
0° 00' 00"
Sunlit
Object was in daylight at epoch
Visualization orbit readout
Latitude
26.7666°
Longitude
-178.22307°
Altitude
360.487 km
Speed
7.697 km/s
Apparent Right ascension
07h 06m 17s
Apparent Declination
-7° 06' 30"
Sunlit
Object is in daylight
Visualization observer readout
Local Sidereal Time
22:03:59
Azimuth
62.616° ENE
Elevation
-38.531°
Doppler factor
1
Orbital elements
Apogee altitude
360.701 km
Perigee altitude
359.261 km
Semi-major axis
6,738.118 km
Eccentricity
0.00011
Inclination
53.1594°
RAAN
52.3203°
Arg. of periapsis
83.7349°
True anomaly
Unknown
Mean anomaly
276.3791°
Eccentric anomaly
Unknown
Mean motion
3.92406 °/min
Orbital period
91.74 mins
BSTAR
0.0000029905
Loading maneuver chart data...
Loading SW <> Apogee altitude chart data...
Loading historical data...
Loading historical data...
Loading historical data...
Loading historical data...
Loading historical data...
Loading historical data...
Loading historical data...

STARLINK-11143 Visibility forecast

Observer location: undefined°, undefined°

Span
Click to sort rows by Start time (UTC) header in descending order
Start Az.
Max El. time (UTC)
Max El. Az.
Max El.
End time (UTC)
End Az.
5 mins2025-07-01 18:06:32.736Z230.099° WSW2025-07-01 18:08:32.736Z235.367° WSW42.908°2025-07-01 18:11:32.736Z49.469° ENE
|